Meteo Giornale » Osservazioni meteo Italia » Cervia

ore: 13:55 - Osservazioni Meteo Cervia
Lat. 44° 13' N Lon. 12° 18' E Alt. 6 metri s.l.m.

nuvoloso Europe/Rome

13 °C

Nuvoloso

Temp. 24 Ore

12 °C

18 °C

Sud-Ovest

22.2 Km/h

Dew point 8 °C

Umidità 71 %

Visibilità  10 Km

Il sole sorge alle ore 07:35

Il sole tramonta alle ore 16:33

Data e Ora Cielo e Fenomeni T °C DP °C Um. % Pres. hPa Vis. km Vento km/h
Oggi h: 13:55 nuvoloso Nuvoloso 13 8 71 1009 10 SO 22.2
Oggi h: 12:55 nuvoloso Nuvoloso 12 10 87 1009 10 S/SO 20.3
Oggi h: 11:55 molto_nuvoloso Molto Nuvoloso 12 11 93 1009 10 S 22.2
Oggi h: 10:55 molto_nuvoloso Molto Nuvoloso 12 11 93 1009 10 S 18.5
Oggi h: 09:55 molto_nuvoloso Molto Nuvoloso 13 9 76 1008 10 O/SO 9.3
Oggi h: 08:55 molto_nuvoloso Molto Nuvoloso 13 10 81 1007 10 O 22.2
Oggi h: 07:55 molto_nuvoloso Molto Nuvoloso 13 10 81 1006 10 O 22.2
Oggi h: 06:55 coperto_pioggia Pioggia Debole 13 12 93 1006 10 N/NO 22.2
Oggi h: 05:55 molto_nuvoloso Molto Nuvoloso 14 12 87 1004 10 O/NO 16.7
Oggi h: 04:55 molto_nuvoloso Molto Nuvoloso 15 12 82 1003 10 O 16.7
Oggi h: 03:55 molto_nuvoloso Molto Nuvoloso 18 12 67 1000 10 S 27.8
Oggi h: 02:55 molto_nuvoloso Molto Nuvoloso 16 12 77 1000 10 S/SE 24
Oggi h: 01:55 molto_nuvoloso Molto Nuvoloso 16 11 72 999 10 S/SE 25.9
Oggi h: 00:55 molto_nuvoloso Molto Nuvoloso 17 12 72 999 10 S/SE 27.8
Ieri h: 23:55 sereno Sereno 17 12 72 999 10 S/SE 35.2
Ieri h: 22:55 molto_nuvoloso Molto Nuvoloso 17 11 67 999 10 S 44.4
Ieri h: 21:55 poco_nuvoloso Poco Nuvoloso 17 11 67 998 10 S 31.5
Ieri h: 20:55 nuvoloso Nuvoloso 17 12 72 998 10 S 37
Ieri h: 19:55 poco_nuvoloso Poco Nuvoloso 16 12 77 997 10 S/SO 40.7
Ieri h: 18:55 nuvoloso Nuvoloso 17 12 72 997 10 S/SO 48.1
Ieri h: 17:55 nuvoloso Nuvoloso 17 11 67 997 10 S/SO 50
Ieri h: 16:55 molto_nuvoloso Molto Nuvoloso 16 11 72 997 10 S 37
Ieri h: 15:55 molto_nuvoloso Molto Nuvoloso 15 12 82 997 10 S/SE 31.5
Ieri h: 14:55 molto_nuvoloso Molto Nuvoloso 15 10 72 997 10 S/SE 29.6